Hoolehua, HI

7:25 PM HST on February 13, 2016 (GMT -1000)
Molokai

Weather History for PHMK - September, 2013

Change the Weather History Date:

Wednesday, September 4, 2013

  Actual Average (WUND) Record (WUND)
Temperature  
Mean Temperature 78 °F -  
Max Temperature 84 °F - - (-1)
Min Temperature 71 °F - - (-1)
Cooling Degree Days 12    
Growing Degree Days 28 (Base 50)    
Moisture  
Dew Point 67 °F    
Average Humidity 75    
Maximum Humidity 91    
Minimum Humidity 54    
Precipitation  
Precipitation 0.00 in - - ()
Sea Level Pressure  
Sea Level Pressure 30.02 in    
Wind  
Wind Speed 9 mph (NNE)    
Max Wind Speed 15 mph    
Max Gust Speed 22 mph    
Visibility 10 miles    
Events      
Averages and records for this station are not official NWS values.
T = Trace of Precipitation, MM = Missing Value Source: NWS Daily Summary

Daily Weather History Graph

Daily Weather History Graph

Search for Another Location

Airport or City:

Trip Planner

Search our weather history database for the weather conditions in past years. The results will help you decide how hot, cold, wet, or windy it might be!

Date:

Astronomy

Sep. 04, 2013 Rise Set
Actual Time 6:12 AM HST 6:41 PM HST
Civil Twilight 5:50 AM HST 7:03 PM HST
Nautical Twilight 5:24 AM HST 7:29 PM HST
Astronomical Twilight 4:57 AM HST 7:56 PM HST
Moon 5:34 AM HST (9/4) 6:12 PM HST (9/4)
Length of Visible Light 13h 13m
Length of Day
12h 28m
Waning Crescent, 0% of the Moon is Illuminated
Sep 4
Waning Crescent
Sep 5
New
Sep 12
First Quarter
Sep 19
Full
Sep 26
Last Quarter

Hourly Weather History & Observations

Time (HST) Temp. Heat Index Dew Point Humidity Pressure Visibility Wind Dir Wind Speed Gust Speed Precip Events Conditions
12:54 AM 73.9 °F - 68.0 °F 82% 30.02 in 10.0 mi NNE 10.4 mph - N/A   Mostly Cloudy
1:54 AM 73.0 °F - 66.9 °F 81% 30.01 in 10.0 mi NE 5.8 mph - N/A   Clear
2:54 AM 73.0 °F - 68.0 °F 84% 30.01 in 10.0 mi NNE 6.9 mph - N/A   Mostly Cloudy
3:54 AM 72.0 °F - 66.9 °F 84% 30.01 in 10.0 mi NNE 5.8 mph - N/A   Clear
4:54 AM 71.1 °F - 68.0 °F 90% 30.01 in 10.0 mi North 8.1 mph - N/A   Clear
5:54 AM 72.0 °F - 69.1 °F 91% 30.02 in 10.0 mi NNE 5.8 mph - N/A   Clear
6:54 AM 73.0 °F - 69.1 °F 87% 30.03 in 10.0 mi North 5.8 mph - N/A   Partly Cloudy
7:54 AM 77.0 °F - 69.1 °F 76% 30.04 in 10.0 mi NE 5.8 mph - N/A   Scattered Clouds
8:54 AM 77.0 °F - 68.0 °F 74% 30.05 in 10.0 mi NE 8.1 mph - N/A   Mostly Cloudy
9:54 AM 80.1 °F 81.9 °F 64.9 °F 60% 30.05 in 10.0 mi NE 6.9 mph - N/A   Mostly Cloudy
10:54 AM 80.1 °F 81.9 °F 64.9 °F 60% 30.05 in 10.0 mi NNE 9.2 mph 18.4 mph N/A   Mostly Cloudy
11:54 AM 81.0 °F 83.3 °F 66.9 °F 62% 30.04 in 10.0 mi NNE 12.7 mph 21.9 mph N/A   Scattered Clouds
12:54 PM 82.9 °F 84.6 °F 64.9 °F 54% 30.02 in 10.0 mi NNE 12.7 mph 19.6 mph N/A   Mostly Cloudy
1:54 PM 84.0 °F 86.3 °F 66.0 °F 55% 30.00 in 10.0 mi NNE 13.8 mph 19.6 mph N/A   Mostly Cloudy
2:54 PM 84.0 °F 86.5 °F 66.9 °F 56% 29.98 in 10.0 mi North 15.0 mph 21.9 mph N/A   Mostly Cloudy
3:54 PM 80.1 °F 82.9 °F 69.1 °F 69% 29.98 in 10.0 mi NNE 15.0 mph 20.7 mph N/A   Scattered Clouds
4:54 PM 79.0 °F - 69.1 °F 72% 29.98 in 10.0 mi NNE 11.5 mph 20.7 mph N/A   Scattered Clouds
5:54 PM 78.1 °F - 69.1 °F 74% 29.99 in 10.0 mi NE 11.5 mph 19.6 mph N/A   Partly Cloudy
6:54 PM 75.0 °F - 69.1 °F 82% 30.01 in 10.0 mi NNE 11.5 mph 18.4 mph N/A   Partly Cloudy
7:54 PM 73.9 °F - 69.1 °F 85% 30.03 in 10.0 mi NE 8.1 mph - N/A   Clear
8:54 PM 73.9 °F - 69.1 °F 85% 30.04 in 10.0 mi NNE 8.1 mph - N/A   Clear
9:54 PM 73.9 °F - 66.0 °F 76% 30.05 in 10.0 mi NNE 4.6 mph - N/A   Partly Cloudy
10:54 PM 73.0 °F - 66.0 °F 79% 30.04 in 10.0 mi NNE 10.4 mph - N/A   Clear
11:54 PM 71.1 °F - 64.0 °F 78% 30.04 in 10.0 mi NE 4.6 mph - N/A   Clear